Location: Pradons
(44.4746°N, 4.3578°E)
Time: 17:59:31
(UTC+00:00)

Cosmos 1703 - Visible Passes

Search period start: 14 May 2021 00:00
Search period end: 24 May 2021 00:00
Orbit: 522 x 540 km, 82.5° (Epoch: 14 May)

Date Brightness Start Highest point End Pass type
(mag) Time Alt. Az. Time Alt. Az. Time Alt. Az.
14 May 5.6 02:59:19 10° SE 03:02:23 23° E 03:05:29 10° NE visible
15 May 5.6 02:49:12 10° SE 02:52:12 22° E 02:55:12 10° NE visible
16 May 5.7 02:39:06 10° SE 02:42:00 20° E 02:44:54 10° NE visible
17 May 5.7 02:29:00 10° SE 02:31:48 19° E 02:34:36 10° NE visible
18 May 5.8 02:18:55 10° SE 02:21:36 18° E 02:24:17 10° NE visible
19 May 5.8 02:08:51 10° SE 02:11:24 17° E 02:13:58 10° NE visible
20 May 5.9 01:58:46 10° SE 02:01:12 16° E 02:03:38 10° NE visible
20 May 4.0 03:33:19 10° SW 03:36:55 36° WNW 03:40:32 10° N visible
21 May 5.9 01:48:43 10° ESE 01:51:00 15° E 01:53:17 10° NE visible
21 May 3.9 03:23:03 10° SSW 03:26:41 39° WNW 03:30:21 10° N visible
22 May 5.9 01:38:41 10° ESE 01:40:48 14° E 01:42:55 10° NE visible
22 May 3.8 03:12:53 11° SSW 03:16:26 41° WNW 03:20:09 10° N visible
23 May 5.9 01:28:40 10° ESE 01:30:36 13° E 01:32:32 10° NE visible
23 May 3.7 03:03:00 13° SSW 03:06:12 44° WNW 03:09:57 10° N visible
